Simultaneous Nadir Overpasses (SNOs) Predictions

Prediction of SNOs between GOES-15 and TERRA Satellite Orbit:

Table of predicted SNOs for the next 14.0 days since TLE Epoch: 5/19/2017
Index Date Time (GOES-15) GOES-15 Lat,Lon TERRA Lat,Lon Distance(km) Time Diff (sec)
1 05/19/2017 19:25:06 -0.12,-134.99 -0.30,-134.05 106.82 80
2 05/20/2017 07:46:30 0.11,-134.91 -0.82,-139.24 492.62 80
3 05/21/2017 19:12:55 -0.12,-134.92 -0.95,-131.10 434.59 80
4 05/22/2017 07:34:19 0.12,-134.83 -0.17,-136.28 164.95 80
5 05/24/2017 07:24:47 0.12,-134.74 0.41,-133.32 161.99 80
6 05/24/2017 19:46:03 -0.11,-134.79 0.65,-138.48 419.46 80
7 05/26/2017 07:12:36 0.12,-134.65 1.06,-130.37 488.00 80
8 05/26/2017 19:33:51 -0.11,-134.69 0.07,-135.52 93.69 80
9 05/28/2017 19:19:00 -0.12,-134.59 -0.58,-132.56 231.34 80
10 05/29/2017 07:43:03 0.11,-134.50 -0.60,-137.74 369.15 80
11 05/31/2017 07:30:52 0.12,-134.39 0.04,-134.78 44.52 80
12 06/02/2017 07:16:00 0.13,-134.29 0.62,-131.82 279.97 80




NCC Satellite Simultaneous Nadir Overpasses (SNOs) Prediction Service
